Martha's Vineyard, MA

8:06 PM EDT on April 21, 2018 (GMT -0400)
Martha's Vineyard

Weather History for KMVY - January, 2013

Change the Weather History Date:

Tuesday, January 8, 2013

  Actual Average Record
Temperature  
Mean Temperature 42 °F -  
Max Temperature 48 °F 40 °F 57 °F (2007)
Min Temperature 37 °F 23 °F 3 °F (1999)
Degree Days  
Heating Degree Days 22    
Moisture  
Dew Point 34 °F    
Average Humidity 71    
Maximum Humidity 89    
Minimum Humidity 56    
Precipitation  
Precipitation 0.00 in - - ()
Sea Level Pressure  
Sea Level Pressure 30.36 in    
Wind  
Wind Speed 11 mph (WSW)    
Max Wind Speed 23 mph    
Max Gust Speed 36 mph    
Visibility 10 miles    
Events      
Averages and records for this station are not official NWS values.
T = Trace of Precipitation, MM = Missing Value Source: NWS Daily Summary

Daily Weather History Graph

Daily Weather History Graph

Search for Another Location

Airport or City:

Astronomy

Jan. 08, 2013 Rise Set
Actual Time 7:08 AM EST 4:30 PM EST
Civil Twilight 6:37 AM EST 5:01 PM EST
Nautical Twilight 6:02 AM EST 5:35 PM EST
Astronomical Twilight 5:29 AM EST 6:09 PM EST
Moon 3:37 AM EST (1/8) 1:30 PM EST (1/8)
Length of Visible Light 10h 24m
Length of Day
9h 22m
Waning Crescent, 14% of the Moon is Illuminated
Jan 8
Waning Crescent
Jan 11
New
Jan 18
First Quarter
Jan 26
Full
Feb 3
Last Quarter

Hourly Weather History & Observations

Time (EST) Temp. Windchill Dew Point Humidity Pressure Visibility Wind Dir Wind Speed Gust Speed Precip Events Conditions
12:53 AM 37.0 °F 30.4 °F 32.0 °F 82% 30.38 in 10.0 mi South 9.2 mph - N/A   Scattered Clouds
1:53 AM 39.0 °F 32.3 °F 33.1 °F 79% 30.39 in 10.0 mi SSW 10.4 mph - N/A   Mostly Cloudy
2:53 AM 39.0 °F 32.8 °F 34.0 °F 82% 30.39 in 10.0 mi SW 9.2 mph - N/A   Partly Cloudy
3:53 AM 39.9 °F 34.5 °F 30.9 °F 70% 30.37 in 10.0 mi SW 8.1 mph - N/A   Clear
4:53 AM 39.9 °F 35.1 °F 32.0 °F 73% 30.36 in 10.0 mi SW 6.9 mph - N/A   Mostly Cloudy
5:53 AM 42.1 °F 36.6 °F 32.0 °F 67% 30.37 in 10.0 mi WSW 9.2 mph - N/A   Mostly Cloudy
6:53 AM 43.0 °F 36.0 °F 34.0 °F 71% 30.37 in 10.0 mi WSW 13.8 mph 20.7 mph N/A   Overcast
7:53 AM 43.0 °F 36.0 °F 33.1 °F 68% 30.39 in 10.0 mi WSW 13.8 mph 24.2 mph N/A   Mostly Cloudy
9:53 AM 45.0 °F 37.4 °F 32.0 °F 60% 30.41 in 10.0 mi WSW 18.4 mph 27.6 mph N/A   Clear
10:53 AM 46.9 °F - 32.0 °F 56% 30.38 in 10.0 mi WSW 16.1 mph 28.8 mph N/A   Clear
11:53 AM 46.9 °F - 32.0 °F 56% 30.35 in 10.0 mi SW 21.9 mph 35.7 mph N/A   Clear
12:51 PM 46.4 °F 39.2 °F 32.0 °F 57% 30.33 in 10.0 mi WSW 18.4 mph 34.5 mph N/A   Clear
12:53 PM 46.9 °F - 32.0 °F 56% 30.33 in 10.0 mi WSW 23.0 mph 34.5 mph N/A   Clear
1:53 PM 48.0 °F - 34.0 °F 58% 30.32 in 10.0 mi WSW 13.8 mph 29.9 mph N/A   Clear
2:53 PM 46.9 °F - 33.1 °F 59% 30.34 in 10.0 mi WSW 19.6 mph 31.1 mph N/A   Clear
3:53 PM 45.0 °F 38.5 °F 34.0 °F 65% 30.34 in 10.0 mi SW 13.8 mph 23.0 mph N/A   Clear
4:53 PM 43.0 °F 36.8 °F 35.1 °F 74% 30.34 in 10.0 mi WSW 11.5 mph - N/A   Clear
5:53 PM 43.0 °F 36.8 °F 36.0 °F 76% 30.35 in 10.0 mi WSW 11.5 mph - N/A   Clear
6:53 PM 44.1 °F 38.6 °F 35.1 °F 71% 30.36 in 10.0 mi WSW 10.4 mph 18.4 mph N/A   Clear
7:53 PM 43.0 °F 39.5 °F 36.0 °F 76% 30.37 in 10.0 mi WSW 5.8 mph - N/A   Clear
8:53 PM 41.0 °F 36.4 °F 36.0 °F 82% 30.37 in 10.0 mi West 6.9 mph - N/A   Clear
9:53 PM 39.9 °F 36.7 °F 36.0 °F 86% 30.38 in 10.0 mi West 4.6 mph - N/A   Clear
10:53 PM 39.9 °F 35.8 °F 37.0 °F 89% 30.37 in 10.0 mi West 5.8 mph - N/A   Clear
11:53 PM 39.9 °F 37.8 °F 37.0 °F 89% 30.37 in 10.0 mi West 3.5 mph - N/A   Clear